FALCON 9 R/B

基本信息
目录编号:
37253
目录名称:
FALCON 9 R/B
国际标识:
2010-066K
轨道中心:
EARTH
物体状态:
在轨
发射日期:
2010-12-08 UTC
国别:
美国 (US)
轨道信息
数据来源: 国际轨道数据
星历时间: 2026-07-14T00:50:22+0800
半长轴: 11141.981km
偏心率: 0.4007393
轨道倾角: 34.496°
近地点辐角: 88.478°
升交点赤经: 263.939°
平近点角: 315.866°
近地点: 298.814km
远地点: 9228.874km
周期: 195.076分钟
每日圈数: 7.381747
详细信息
发射场:
AFETR
轨道高度:
LEO
数据来源:
AOE Integration Group
参考系:
TEME
时间系统:
UTC
历元类型:
SGP4
2D轨道图
3D轨道图
轨道高度分析图
轨道倾角分析图
轨道综合分析图
查看轨道综合分析图